Content
SEND FEEDBACK

Daily
Averages
Monthly
Summary
United States of America

GRANBY, COLORADO


Home > North America > United States > Colorado
Elevation: 8210 feet     Latitude: 40 06N     Longitude: 105 56W

WEATHER
 
SELECT A DAY
Number of Records: 260,634;   Date Range: 8/13/03 - 7/27/14
 
SHARE

PRINT THIS DATA

[ ← Previous Day ]
WEATHER ALMANAC - APRIL 10, 2014
[ Next Day → ]
[ °C ]   °F
Weather ElementAverageHighLow
Temperature48.9 °F60.8 °F (12:36 pm)35.6 °F (6:56 am)
Dewpoint21.3 °F30.2 °F (9:16 pm)12.2 °F (12:35 am)
Humidity38.1 %75 % (11:36 pm)15 % (1:56 pm)
Barometer30.11 in30.17 in (9:36 pm)30.08 in (4:56 am)
Wind Speed6.1 mph16.1 mph (2:36 pm)
Wind Gust25.3 mph (4:35 pm)
Weather ElementAverage
Visibility10 mi
Wind DirectionS (185.1 °)

Weather ElementTotal
Precipitation---
Heating Degree Days16.8 (Base 65)
Averaged from 71 records on April 10, 2014
WEATHER CONDITIONS BREAKOUT
WIND DIRECTION BREAKOUT
WEATHER BY HOUR - APRIL 10, 2014
[ °C ]   °F
Local TimeTemperatureDewpointHumidityBarometerVisibilityWind DirectionWind SpeedGust SpeedPrecipitationEventsConditions
12:35 AM50.0 °F12.2 °F22 %30.10 in10.0 miWNW (300°)4.6 mphOvercast
12:55 AM48.2 °F14.0 °F25 %30.11 in10.0 miNNW (340°)8.1 mphMostly Cloudy
1:15 AM50.0 °F12.2 °F22 %30.11 in10.0 miWNW (300°)4.6 mphScattered Clouds
1:36 AM44.6 °F14.0 °F29 %30.11 in10.0 miWest (280°)4.6 mphScattered Clouds
1:56 AM41.0 °F14.0 °F33 %30.10 in10.0 miNorth (360°)4.6 mphScattered Clouds
2:16 AM42.8 °F14.0 °F31 %30.10 in10.0 miCalmMostly Cloudy
2:36 AM41.0 °F17.6 °F39 %30.09 in10.0 miNNW (330°)4.6 mphMostly Cloudy
2:56 AM39.2 °F19.4 °F45 %30.09 in10.0 miESE (120°)3.5 mphOvercast
3:16 AM37.4 °F21.2 °F52 %30.09 in10.0 miCalmMostly Cloudy
3:36 AM37.4 °F21.2 °F52 %30.10 in10.0 miCalmMostly Cloudy
3:56 AM37.4 °F23.0 °F56 %30.09 in10.0 miCalmMostly Cloudy
4:16 AM37.4 °F23.0 °F56 %30.09 in10.0 miNorth (350°)3.5 mphMostly Cloudy
4:36 AM37.4 °F24.8 °F60 %30.10 in10.0 miCalmOvercast
4:56 AM37.4 °F23.0 °F56 %30.08 in10.0 miSE (130°)3.5 mphScattered Clouds
5:16 AM37.4 °F23.0 °F56 %30.09 in10.0 miNNE (20°)4.6 mphScattered Clouds
5:35 AM37.4 °F23.0 °F56 %30.10 in10.0 miESE (120°)6.9 mphOvercast
5:56 AM37.4 °F24.8 °F60 %30.11 in10.0 miENE (60°)3.5 mphOvercast
6:16 AM37.4 °F24.8 °F60 %30.12 in10.0 miCalmOvercast
6:36 AM37.4 °F26.6 °F65 %30.12 in10.0 miCalmOvercast
6:56 AM35.6 °F24.8 °F65 %30.12 in10.0 miCalmMostly Cloudy
7:16 AM35.6 °F26.6 °F70 %30.12 in10.0 miCalmScattered Clouds
7:36 AM37.4 °F26.6 °F65 %30.12 in10.0 miCalmScattered Clouds
7:56 AM41.0 °F24.8 °F53 %30.12 in10.0 miCalmClear
8:16 AM46.4 °F24.8 °F43 %30.12 in10.0 miCalmClear
8:35 AM50.0 °F26.6 °F40 %30.12 in10.0 miEast (90°)6.9 mphClear
8:56 AM51.8 °F23.0 °F33 %30.12 in10.0 miCalmClear
9:15 AM53.6 °F21.2 °F28 %30.12 in10.0 miCalmClear
9:36 AM53.6 °F19.4 °F26 %30.12 in10.0 miWSW (240°)3.5 mphScattered Clouds
9:56 AM55.4 °F19.4 °F25 %30.12 in10.0 miWest (270°)6.9 mphScattered Clouds
10:16 AM55.4 °F19.4 °F25 %30.13 in10.0 miNNW (330°)11.5 mph18.4 mphMostly Cloudy
10:36 AM55.4 °F17.6 °F23 %30.13 in10.0 miWest (280°)10.4 mphOvercast
10:55 AM55.4 °F17.6 °F23 %30.13 in10.0 miWest (280°)10.4 mphOvercast
11:16 AM57.2 °F17.6 °F21 %30.13 in10.0 miWNW (290°)12.7 mph17.3 mphMostly Cloudy
11:36 AM59.0 °F19.4 °F22 %30.12 in10.0 miWest (270°)15.0 mphMostly Cloudy
11:56 AM59.0 °F19.4 °F22 %30.12 in10.0 miWest (280°)12.7 mph17.3 mphScattered Clouds
12:16 PM59.0 °F17.6 °F20 %30.11 in10.0 miWest (280°)12.7 mph21.9 mphScattered Clouds
12:36 PM60.8 °F17.6 °F19 %30.10 in10.0 miWNW (290°)10.4 mph21.9 mphMostly Cloudy
12:56 PM59.0 °F17.6 °F20 %30.09 in10.0 miWest (270°)12.7 mph23.0 mphScattered Clouds
1:15 PM60.8 °F17.6 °F19 %30.09 in10.0 miWNW (290°)9.2 mph21.9 mphClear
1:36 PM60.8 °F17.6 °F19 %30.09 in10.0 miWest (280°)9.2 mphClear
1:56 PM60.8 °F12.2 °F15 %30.09 in10.0 miWNW (300°)15.0 mph23.0 mphClear
2:16 PM60.8 °F12.2 °F15 %30.09 in10.0 miNW (310°)12.7 mph24.2 mphClear
2:36 PM60.8 °F12.2 °F15 %30.09 in10.0 miNW (320°)16.1 mph23.0 mphScattered Clouds
2:56 PM59.0 °F14.0 °F17 %30.09 in10.0 miNW (310°)12.7 mph24.2 mphMostly Cloudy
3:16 PM59.0 °F14.0 °F17 %30.09 in10.0 miWNW (290°)10.4 mph20.7 mphMostly Cloudy
3:36 PM59.0 °F19.4 °F22 %30.09 in10.0 miNNW (330°)11.5 mph17.3 mphOvercast
3:56 PM59.0 °F19.4 °F22 %30.08 in10.0 miNW (320°)12.7 mph18.4 mphOvercast
4:16 PM57.2 °F19.4 °F23 %30.09 in10.0 miNorth (350°)12.7 mph19.6 mphOvercast
4:35 PM57.2 °F19.4 °F23 %30.09 in10.0 miNW (320°)12.7 mph25.3 mphOvercast
4:56 PM55.4 °F21.2 °F26 %30.09 in10.0 miNorth (350°)15.0 mph19.6 mphMostly Cloudy
5:16 PM57.2 °F21.2 °F25 %30.09 in10.0 miNorth (350°)15.0 mph19.6 mphScattered Clouds
5:36 PM59.0 °F21.2 °F23 %30.10 in10.0 miNNW (340°)8.1 mph18.4 mphClear
5:56 PM59.0 °F21.2 °F23 %30.10 in10.0 miNNW (330°)8.1 mphClear
6:16 PM59.0 °F21.2 °F23 %30.10 in10.0 miNW (310°)4.6 mphClear
6:36 PM55.4 °F17.6 °F23 %30.10 in10.0 miWSW (250°)6.9 mphClear
6:56 PM55.4 °F19.4 °F25 %30.11 in10.0 miNW (320°)6.9 mph20.7 mphMostly Cloudy
7:16 PM53.6 °F19.4 °F26 %30.11 in10.0 miNW (320°)6.9 mphMostly Cloudy
7:36 PM50.0 °F26.6 °F40 %30.12 in10.0 miNNW (340°)12.7 mph20.7 mphMostly Cloudy
7:56 PM50.0 °F26.6 °F40 %30.12 in10.0 miNNW (340°)12.7 mph17.3 mphMostly Cloudy
8:16 PM50.0 °F28.4 °F43 %30.13 in10.0 miCalmMostly Cloudy
8:36 PM50.0 °F28.4 °F43 %30.14 in10.0 miCalmMostly Cloudy
8:55 PM46.4 °F28.4 °F50 %30.16 in10.0 miCalmMostly Cloudy
9:16 PM46.4 °F30.2 °F53 %30.16 in10.0 miWSW (240°)4.6 mphOvercast
9:36 PM44.6 °F28.4 °F53 %30.17 in10.0 miNNW (330°)8.1 mphMostly Cloudy
9:56 PM44.6 °F28.4 °F53 %30.17 in10.0 miCalmMostly Cloudy
10:16 PM41.0 °F28.4 °F61 %30.17 in10.0 miCalmMostly Cloudy
10:36 PM41.0 °F28.4 °F61 %30.17 in10.0 miCalmScattered Clouds
10:56 PM37.4 °F28.4 °F70 %30.17 in10.0 miCalmScattered Clouds
11:16 PM37.4 °F28.4 °F70 %30.17 in10.0 miCalmMostly Cloudy
11:36 PM37.4 °F30.2 °F75 %30.17 in10.0 miCalmScattered Clouds
11:56 PM35.6 °F28.4 °F75 %30.17 in10.0 miNNE (20°)3.5 mphClear
Hourly data recorded from K20V, located miles away from Granby, Colorado







STORIES FROM OUR PARTNERS